Ruston, LA

7:53 PM CDT on September 29, 2016 (GMT -0500)
Ruston Regional

Weather History for KRSN - February, 2013

Change the Weather History Date:

Saturday, February 23, 2013

  Actual Average Record
Temperature  
Mean Temperature 47 °F -  
Max Temperature 59 °F 62 °F 89 °F (2012)
Min Temperature 35 °F 39 °F 22 °F (1964)
Degree Days  
Heating Degree Days 18    
Moisture  
Dew Point 37 °F    
Average Humidity 78    
Maximum Humidity 100    
Minimum Humidity 36    
Precipitation  
Precipitation 0.00 in - - ()
Sea Level Pressure  
Sea Level Pressure 30.03 in    
Wind  
Wind Speed 5 mph (NNE)    
Max Wind Speed 8 mph    
Max Gust Speed -    
Visibility 10 miles    
Events      
Averages and records for this station are not official NWS values.
T = Trace of Precipitation, MM = Missing Value Source: NWS Daily Summary

Daily Weather History Graph

Daily Weather History Graph

Search for Another Location

Airport or City:

Trip Planner

Search our weather history database for the weather conditions in past years. The results will help you decide how hot, cold, wet, or windy it might be!

Date:

Astronomy

Feb. 23, 2013 Rise Set
Actual Time 6:44 AM CST 6:03 PM CST
Civil Twilight 6:19 AM CST 6:28 PM CST
Nautical Twilight 5:51 AM CST 6:56 PM CST
Astronomical Twilight 5:22 AM CST 7:25 PM CST
Moon 4:17 PM CST (2/23) 5:02 AM CST (2/23)
Length of Visible Light 12h 08m
Length of Day
11h 18m
Waxing Gibbous, 95% of the Moon is Illuminated
Feb 23
Waxing Gibbous
Feb 25
Full
Mar 4
Last Quarter
Mar 11
New
Mar 19
First Quarter

Hourly Weather History & Observations

Time (CST) Temp. Windchill Dew Point Humidity Pressure Visibility Wind Dir Wind Speed Gust Speed Precip Events Conditions
12:15 AM 43.7 °F 40.3 °F 43.2 °F 98% 30.08 in 10.0 mi North 5.8 mph - N/A   Mostly Cloudy
12:55 AM 42.4 °F 38.1 °F 42.4 °F 100% 30.08 in 10.0 mi North 6.9 mph - N/A   Clear
1:15 AM 42.4 °F 38.1 °F 42.4 °F 100% 30.06 in 10.0 mi North 6.9 mph - N/A   Clear
1:35 AM 41.9 °F 38.2 °F 41.9 °F 100% 30.07 in 10.0 mi NNE 5.8 mph - N/A   Scattered Clouds
1:55 AM 41.9 °F 38.2 °F 41.9 °F 100% 30.05 in 10.0 mi North 5.8 mph - N/A   Clear
2:15 AM 41.4 °F 38.4 °F 41.4 °F 100% 30.05 in 10.0 mi NNE 4.6 mph - N/A   Clear
2:35 AM 40.3 °F 37.1 °F 40.3 °F 100% 30.05 in 10.0 mi North 4.6 mph - N/A   Clear
2:55 AM 40.5 °F 36.5 °F 40.5 °F 100% 30.04 in 10.0 mi NNE 5.8 mph - N/A   Clear
3:15 AM 40.6 °F 36.0 °F 40.5 °F 99% 30.03 in 10.0 mi NNE 6.9 mph - N/A   Clear
3:35 AM 39.6 °F 35.4 °F 39.4 °F 99% 30.04 in 10.0 mi NNE 5.8 mph - N/A   Clear
3:55 AM 39.6 °F 36.3 °F 38.7 °F 97% 30.02 in 10.0 mi NNE 4.6 mph - N/A   Clear
4:15 AM 39.2 °F 35.0 °F 37.9 °F 95% 30.01 in 10.0 mi NNE 5.8 mph - N/A   Clear
4:35 AM 38.3 °F 33.9 °F 37.8 °F 98% 30.01 in 10.0 mi NNE 5.8 mph - N/A   Clear
4:55 AM 37.6 °F 33.1 °F 37.6 °F 100% 30.01 in 10.0 mi NNE 5.8 mph - N/A   Clear
5:15 AM 37.4 °F 32.8 °F 37.4 °F 100% 30.03 in 10.0 mi North 5.8 mph - N/A   Clear
5:35 AM 36.7 °F 30.5 °F 36.7 °F 100% 30.03 in 10.0 mi North 8.1 mph - N/A   Clear
5:55 AM 36.5 °F 31.8 °F 36.5 °F 100% 30.02 in 10.0 mi North 5.8 mph - N/A   Clear
6:15 AM 36.3 °F 30.8 °F 36.3 °F 100% 30.04 in 10.0 mi North 6.9 mph - N/A   Clear
6:35 AM 35.6 °F 30.7 °F 35.6 °F 100% 30.06 in 10.0 mi North 5.8 mph - N/A   Clear
6:55 AM 35.6 °F 31.7 °F 35.6 °F 100% 30.07 in 7.0 mi North 4.6 mph - N/A   Clear
7:15 AM 35.6 °F 31.7 °F 35.6 °F 100% 30.08 in 7.0 mi North 4.6 mph - N/A   Clear
7:35 AM 36.0 °F 31.1 °F 36.0 °F 100% 30.08 in 5.0 mi North 5.8 mph - N/A   Clear
7:55 AM 37.6 °F 33.1 °F 37.6 °F 100% 30.08 in 10.0 mi NE 5.8 mph - N/A   Clear
8:15 AM 39.6 °F 34.0 °F 37.2 °F 91% 30.08 in 10.0 mi NE 8.1 mph - N/A   Clear
8:35 AM 40.5 °F 35.8 °F 34.2 °F 78% 30.09 in 10.0 mi NE 6.9 mph - N/A   Clear
8:55 AM 41.9 °F 36.9 °F 33.3 °F 71% 30.09 in 10.0 mi NE 8.1 mph - N/A   Clear
9:15 AM 42.4 °F 38.8 °F 32.5 °F 68% 30.09 in 10.0 mi NNE 5.8 mph - N/A   Clear
9:35 AM 43.5 °F 40.9 °F 32.5 °F 65% 30.08 in 10.0 mi ENE 4.6 mph - N/A   Clear
9:55 AM 44.6 °F 42.2 °F 32.4 °F 62% 30.08 in 10.0 mi ESE 4.6 mph - N/A   Clear
10:15 AM 45.1 °F 42.0 °F 33.1 °F 63% 30.08 in 10.0 mi NE 5.8 mph - N/A   Clear
10:35 AM 46.2 °F 45.0 °F 33.3 °F 61% 30.07 in 10.0 mi North 3.5 mph - N/A   Clear
10:55 AM 48.0 °F - 33.8 °F 58% 30.06 in 10.0 mi NNE 5.8 mph - N/A   Clear
11:15 AM 48.7 °F - 33.8 °F 56% 30.05 in 10.0 mi NNE 4.6 mph - N/A   Clear
11:35 AM 50.9 °F - 33.8 °F 52% 30.04 in 10.0 mi ENE 6.9 mph - N/A   Clear
11:55 AM 52.0 °F - 33.8 °F 50% 30.03 in 10.0 mi NNE 5.8 mph - N/A   Clear
12:15 PM 53.2 °F - 33.8 °F 48% 30.02 in 10.0 mi NNE 8.1 mph - N/A   Clear
12:35 PM 53.6 °F - 32.9 °F 45% 30.01 in 10.0 mi Calm Calm - N/A   Clear
12:55 PM 55.2 °F - 32.9 °F 43% 30.00 in 10.0 mi North 6.9 mph - N/A   Clear
1:15 PM 56.3 °F - 32.7 °F 41% 30.01 in 10.0 mi North 6.9 mph - N/A   Clear
1:35 PM 56.5 °F - 32.9 °F 41% 29.99 in 10.0 mi North 4.6 mph - N/A   Clear
1:55 PM 57.2 °F - 32.5 °F 39% 29.99 in 10.0 mi North 4.6 mph - N/A   Clear
2:15 PM 57.4 °F - 32.0 °F 38% 29.98 in 10.0 mi NNW 3.5 mph - N/A   Clear
2:55 PM 58.6 °F - 31.8 °F 36% 29.98 in 10.0 mi North 4.6 mph - N/A   Clear
3:15 PM 59.4 °F - 32.5 °F 36% 29.99 in 10.0 mi NE 4.6 mph - N/A   Clear
3:55 PM 59.4 °F - 32.7 °F 37% 29.99 in 10.0 mi NE 4.6 mph - N/A   Clear
4:15 PM 59.5 °F - 33.1 °F 37% 29.98 in 10.0 mi NNE 3.5 mph - N/A   Clear
4:35 PM 59.0 °F - 32.5 °F 37% 29.99 in 10.0 mi North 4.6 mph - N/A   Clear
4:55 PM 58.5 °F - 33.3 °F 39% 29.99 in 10.0 mi North 3.5 mph - N/A   Clear
5:15 PM 57.6 °F - 34.2 °F 41% 29.99 in 10.0 mi North 3.5 mph - N/A   Clear
5:35 PM 56.3 °F - 34.9 °F 45% 29.99 in 10.0 mi NE 3.5 mph - N/A   Clear
5:55 PM 54.3 °F - 37.2 °F 52% 29.99 in 10.0 mi NE 3.5 mph - N/A   Clear
6:15 PM 49.1 °F - 41.2 °F 74% 30.00 in 10.0 mi Calm Calm - N/A   Clear
6:35 PM 47.3 °F - 41.4 °F 80% 29.99 in 10.0 mi Calm Calm - N/A   Clear
6:55 PM 45.7 °F - 41.5 °F 85% 30.00 in 10.0 mi Calm Calm - N/A   Clear
7:15 PM 43.9 °F - 42.4 °F 95% 30.00 in 10.0 mi Calm Calm - N/A   Clear
7:35 PM 43.2 °F - 42.1 °F 96% 30.00 in 10.0 mi Calm Calm - N/A   Clear
7:55 PM 42.1 °F - 42.1 °F 100% 30.00 in 10.0 mi Calm Calm - N/A   Clear
8:15 PM 41.7 °F - 41.7 °F 100% 30.00 in 10.0 mi Calm Calm - N/A   Clear
8:35 PM 41.0 °F - 41.0 °F 100% 30.01 in 10.0 mi Calm Calm - N/A   Clear
8:55 PM 41.9 °F 40.0 °F 41.9 °F 100% 30.01 in 10.0 mi East 3.5 mph - N/A   Clear
9:15 PM 43.9 °F - 39.2 °F 84% 30.01 in 10.0 mi Calm Calm - N/A   Clear
9:35 PM 39.6 °F - 39.6 °F 100% 30.02 in 10.0 mi Calm Calm - N/A   Clear
10:15 PM 39.4 °F - 39.4 °F 100% 30.02 in 10.0 mi Calm Calm - N/A   Clear
10:35 PM 38.3 °F - 38.3 °F 100% 30.03 in 10.0 mi Calm Calm - N/A   Clear
10:55 PM 37.9 °F - 37.9 °F 100% 30.03 in 10.0 mi Calm Calm - N/A   Clear
11:15 PM 36.7 °F - 36.7 °F 100% 30.03 in 10.0 mi Calm Calm - N/A   Clear
11:35 PM 36.5 °F - 36.5 °F 100% 30.03 in 10.0 mi Calm Calm - N/A   Clear
11:55 PM 36.3 °F - 36.3 °F 100% 30.03 in 10.0 mi Calm Calm - N/A   Clear